GFSSGP_925_thetae_000.txt.gz
Theta_e
315 320 321 322 327 324 322 323 321 321 321 321 320 322 320 320 319 320 320 325 332 333 338 338 341 341 340 340 338 337 336 336 337 338 338 336 335 333 333 334 329 324 332 334 337 343 342 343 340
317 320 321 323 323 322 321 319 320 319 319 318 318 319 319 320 320 320 321 325 329 331 336 339 339 339 339 339 338 337 337 336 338 338 338 336 335 333 335 335 336 325 331 334 339 343 342 341 340
318 318 324 322 321 321 321 319 319 318 316 318 318 316 317 318 316 317 322 321 330 329 334 336 337 338 337 339 339 338 336 335 336 337 336 335 335 335 337 336 338 335 334 334 340 342 341 341 340
318 320 318 321 320 320 319 319 317 317 317 315 315 316 315 314 315 317 318 320 329 330 331 335 336 336 337 337 337 337 335 334 334 335 336 335 335 335 338 335 335 335 335 334 341 341 340 340 339
315 318 321 320 319 319 318 317 315 317 317 317 314 317 315 314 312 313 319 319 324 328 327 330 335 337 337 337 337 336 336 334 333 332 333 335 336 336 336 334 333 335 336 330 341 339 340 340 338
319 318 321 320 319 318 317 316 315 316 316 315 313 314 315 312 311 314 315 321 325 327 326 324 326 331 334 336 336 335 335 333 332 332 330 334 333 335 334 332 332 335 335 331 340 339 339 338 336
320 319 320 319 319 319 317 313 315 316 316 316 313 315 316 314 313 312 315 319 322 325 326 325 323 325 328 331 333 336 336 333 332 331 330 332 330 331 331 331 332 335 335 332 338 339 339 337 335
318 319 320 319 319 319 316 314 313 314 316 310 311 316 317 313 312 314 316 319 322 324 325 326 328 324 331 333 332 337 336 333 331 330 330 330 329 330 330 331 331 334 333 335 338 338 336 333 331
315 320 319 318 318 318 315 315 314 311 313 312 311 312 312 309 311 313 315 318 320 322 322 324 327 330 331 332 334 335 334 333 330 330 328 326 330 331 332 333 333 334 333 333 336 336 333 330 328
318 320 319 316 316 317 317 314 313 314 316 315 314 314 311 310 310 310 311 311 312 314 318 323 325 329 330 332 334 335 335 333 331 331 330 329 329 331 333 333 332 334 333 331 336 333 331 327 329
316 320 315 315 314 314 315 315 311 314 316 313 312 312 311 312 309 308 307 307 307 309 312 315 321 325 330 332 332 334 334 334 332 332 331 330 329 329 328 332 331 333 332 332 332 328 326 324 323
317 315 314 314 313 313 314 312 314 312 314 311 311 312 313 309 306 304 305 305 305 305 306 309 313 320 325 328 331 331 332 333 332 331 331 329 329 329 330 329 331 331 331 329 327 326 326 324 324
315 315 312 311 311 311 311 313 311 312 311 313 313 312 309 304 303 303 303 304 304 305 306 306 308 315 320 325 326 330 330 331 331 331 330 328 327 327 328 328 331 330 329 328 326 325 324 323 323
312 312 313 310 310 309 312 312 310 312 313 311 311 308 305 304 303 302 302 302 303 304 305 307 307 310 315 321 325 326 328 329 330 329 328 327 326 327 327 327 327 327 325 323 322 322 319 319 321
310 313 315 313 312 310 310 313 312 313 311 309 309 306 304 303 302 301 301 301 302 303 304 306 308 310 312 317 321 324 326 326 329 329 327 326 326 327 326 326 326 326 321 319 319 323 322 320 321
313 314 313 313 312 309 313 313 313 311 307 309 307 304 303 302 301 301 300 299 300 301 301 302 306 311 314 315 319 321 322 324 325 327 327 326 325 326 326 326 325 326 322 321 319 322 320 320 320
316 315 313 312 312 312 313 315 313 308 307 307 304 302 301 301 301 300 299 298 298 298 299 300 302 304 309 317 317 319 319 322 322 325 326 325 324 324 325 325 323 323 321 320 319 321 321 319 320
317 316 313 312 312 313 314 314 311 306 305 303 302 301 300 300 301 299 297 297 297 297 297 298 300 302 304 308 316 318 318 319 322 323 323 323 323 323 324 322 322 321 320 318 318 319 320 319 319
313 314 314 311 313 313 312 311 307 305 301 301 300 299 298 299 300 299 296 296 296 297 296 297 299 301 305 306 308 311 318 319 321 321 322 321 322 321 322 322 320 319 319 318 318 318 318 318 317
313 312 310 313 312 309 309 307 304 304 298 298 299 297 297 298 300 298 296 295 295 297 296 296 298 300 304 305 306 306 309 314 320 320 320 321 321 321 321 321 319 319 317 316 316 317 316 315 315
309 311 313 311 308 307 306 305 305 302 299 297 297 297 297 296 297 297 295 294 295 296 295 295 296 298 302 302 301 302 305 309 315 320 320 320 320 320 320 319 318 318 317 316 316 316 315 315 315
311 309 308 305 305 305 305 304 306 306 300 297 297 296 296 295 295 295 294 293 294 295 294 294 295 297 300 301 300 298 301 306 309 312 320 319 317 318 319 319 318 317 317 317 315 316 315 315 315
312 304 304 304 305 306 305 306 309 307 300 296 296 296 295 295 294 294 294 293 293 294 293 294 294 296 296 300 299 298 298 300 304 307 313 319 318 319 318 318 318 316 316 317 315 315 316 314 314
301 303 303 305 306 307 303 299 302 300 295 295 296 295 294 294 294 294 293 292 293 293 293 293 293 293 294 295 299 297 298 299 301 304 308 317 318 318 317 317 317 316 315 315 315 315 315 314 314
301 304 303 306 308 306 301 298 299 296 295 295 294 294 293 293 293 293 293 293 293 293 292 293 292 293 293 293 296 298 297 298 299 303 306 311 317 317 316 317 317 316 315 314 313 313 312 314 314
303 304 300 300 302 302 299 299 300 295 295 295 294 293 293 293 293 293 293 293 292 292 292 292 292 292 292 292 294 296 296 297 298 299 302 306 308 317 317 316 317 316 315 313 313 313 312 313 314
304 303 299 297 298 299 298 298 299 295 295 294 293 292 292 291 292 293 293 292 292 292 291 291 291 292 292 292 293 296 296 296 297 297 298 298 305 307 317 316 316 316 315 314 313 313 313 314 314
296 297 299 298 296 296 296 295 295 294 294 293 292 292 291 292 293 293 293 292 291 291 291 290 290 291 291 292 292 295 296 296 296 295 296 297 298 303 308 316 316 315 315 313 313 313 312 312 312
294 294 294 292 293 295 295 295 295 294 293 292 291 291 291 292 293 292 292 291 289 289 288 287 287 288 290 292 292 293 295 296 296 296 296 296 297 296 305 314 315 315 314 312 311 311 311 310 311
293 295 292 292 292 292 293 293 294 294 293 292 290 290 291 292 292 291 290 288 286 283 281 280 280 281 282 284 286 292 293 295 296 296 295 295 296 295 297 305 315 314 312 311 310 309 308 308 308

GFSSGP_925_thetae_003.txt.gz
Theta_e
320 323 324 325 331 327 324 324 322 322 322 321 321 321 321 320 321 322 324 326 330 332 337 338 334 338 342 340 340 339 339 340 341 340 340 339 338 337 335 333 322 322 325 333 328 337 344 342 343
321 323 324 327 327 324 323 321 322 321 320 319 320 320 321 321 320 319 320 326 328 331 335 340 338 338 341 340 339 338 338 338 339 339 339 339 338 337 335 335 334 323 325 332 333 337 343 341 342
321 321 328 325 322 323 323 321 321 320 319 319 319 319 318 319 318 317 322 324 326 331 334 338 339 338 339 339 339 339 338 337 337 339 339 339 337 336 335 336 336 334 333 333 332 337 342 340 341
321 323 323 324 321 321 321 320 319 319 319 318 318 319 319 317 317 317 318 322 325 329 332 336 337 338 337 338 339 339 338 337 336 336 339 338 336 335 335 336 335 337 338 338 334 335 341 340 340
319 322 324 322 321 320 320 319 318 319 319 319 318 319 319 318 315 315 316 318 323 325 330 333 334 335 336 337 337 337 337 337 336 335 334 334 334 334 334 336 335 335 336 338 338 337 340 340 339
322 320 323 322 320 319 319 318 318 319 318 318 317 317 318 316 315 315 315 316 319 324 327 331 332 330 336 337 338 338 337 336 335 334 333 332 331 335 336 335 334 332 333 336 337 339 340 340 340
322 322 322 321 320 321 319 317 318 318 318 317 316 317 318 316 313 313 315 318 319 321 326 328 330 332 329 332 336 338 337 336 335 334 332 331 329 330 332 334 332 331 332 335 337 339 339 339 339
321 321 321 321 320 321 318 317 317 317 318 314 314 316 316 313 312 312 313 313 314 318 322 324 327 330 332 333 332 332 334 336 336 334 332 331 330 331 330 331 330 330 332 334 336 339 339 338 337
319 323 321 319 320 320 318 318 318 316 315 315 314 315 314 313 310 310 309 309 309 309 310 314 321 325 328 331 332 333 332 335 336 334 331 330 330 332 332 332 332 334 332 333 334 337 338 336 335
321 322 320 318 318 319 318 317 316 316 317 315 314 315 311 308 307 308 307 307 306 307 308 308 310 316 324 329 329 332 333 333 333 334 333 331 331 330 331 332 332 331 332 333 332 335 337 336 333
320 320 318 317 317 317 316 316 314 315 316 313 314 313 308 306 305 305 305 304 305 306 307 308 309 309 314 322 328 330 331 332 333 333 333 332 331 330 331 331 331 331 332 333 331 333 334 332 326
318 317 317 317 315 315 315 314 315 315 313 310 312 308 306 305 304 303 303 303 303 304 305 306 310 311 311 316 322 326 329 330 331 331 332 332 331 331 330 331 331 332 331 331 330 328 324 328 329
318 317 315 314 314 314 314 314 314 314 311 311 308 305 305 304 303 302 301 301 301 302 302 302 304 310 314 314 317 321 325 328 329 331 330 330 330 331 330 330 331 329 329 330 328 325 324 320 322
317 315 315 313 314 313 314 314 313 314 309 309 305 304 304 303 302 301 300 300 300 300 300 300 302 304 307 315 317 317 321 324 325 328 328 329 329 329 330 329 329 328 329 329 328 326 325 322 319
314 316 315 314 313 313 314 314 314 312 307 309 305 304 303 302 301 300 299 299 299 299 299 299 300 302 304 307 311 318 319 320 324 324 327 327 328 328 328 329 328 327 327 328 326 325 324 323 322
316 316 316 315 313 313 313 313 314 309 308 307 303 302 302 302 301 299 298 298 298 298 299 298 299 300 303 306 308 311 318 319 319 322 322 325 326 327 327 328 327 327 326 326 324 322 323 322 322
318 318 317 314 313 313 313 314 315 307 307 303 302 301 300 301 301 299 298 296 296 297 299 298 298 299 301 304 308 309 312 316 319 319 321 322 323 326 326 326 326 326 324 323 321 321 320 321 321
314 314 315 316 313 314 314 313 310 305 304 301 300 299 299 299 300 299 297 295 295 296 298 297 296 297 298 302 305 306 307 310 312 315 321 322 322 324 325 326 325 326 324 322 321 320 321 320 321
313 315 315 313 314 312 310 309 308 302 301 301 299 298 297 297 296 295 295 295 294 295 296 296 295 296 296 299 303 304 303 302 305 310 311 322 322 322 325 325 324 325 323 322 321 321 321 321 321
314 313 311 312 313 310 308 308 306 301 298 299 298 297 297 296 295 295 294 294 294 294 294 296 295 294 295 297 300 302 302 300 301 307 310 308 321 322 321 324 323 323 322 321 321 320 320 320 319
312 310 312 311 310 309 308 308 306 300 298 298 298 297 296 295 295 295 294 293 293 293 294 294 294 294 294 295 297 298 301 300 300 299 302 306 307 321 321 321 322 321 321 320 319 319 320 318 318
311 308 308 308 309 308 307 307 308 302 301 298 298 297 296 295 295 294 294 293 293 293 293 293 294 293 293 294 295 296 297 301 299 299 299 302 305 307 320 320 320 321 320 319 319 318 318 317 317
310 304 306 307 308 307 307 307 309 307 306 298 297 295 294 294 294 293 293 293 293 293 293 293 293 293 293 294 294 294 296 298 300 299 299 300 304 305 304 320 320 319 319 318 318 317 317 316 317
303 306 305 306 306 308 308 305 307 306 301 297 296 295 294 294 293 293 292 292 293 293 293 293 293 292 293 293 293 294 294 295 298 299 299 299 302 305 307 317 319 318 318 317 317 317 317 316 316
305 305 306 312 314 314 304 302 303 299 296 296 295 294 293 293 293 293 294 293 293 292 292 292 292 291 291 291 292 293 293 294 295 298 298 298 298 298 302 306 316 317 317 317 317 316 316 316 316
304 303 304 306 309 308 303 301 303 299 296 296 295 293 293 292 293 293 293 292 292 291 290 289 287 289 289 290 291 292 292 294 294 297 298 298 298 298 299 302 304 318 317 317 316 316 316 315 315
306 304 302 302 303 300 303 302 299 298 296 296 294 293 292 292 292 293 292 291 290 290 288 286 283 282 282 282 283 284 288 293 293 295 297 297 297 297 296 296 304 303 317 317 316 316 316 315 314
299 300 300 299 301 304 304 302 301 297 296 294 293 292 292 292 292 292 291 290 290 287 284 282 280 279 278 278 280 281 283 286 287 294 296 297 296 296 295 295 298 305 314 316 315 315 315 314 314
297 297 295 296 298 298 300 302 297 295 295 293 292 292 292 292 292 291 290 290 287 284 282 280 279 278 278 278 279 280 281 282 284 287 295 296 296 296 295 295 295 300 301 315 314 314 313 313 313
294 296 296 296 298 295 296 297 297 296 295 293 292 291 292 292 291 290 290 288 285 283 281 279 278 277 277 277 277 278 279 280 283 285 288 294 296 296 296 293 293 295 301 309 313 313 312 312 313

GFSSGP_925_thetae_006.txt.gz
Theta_e
322 323 324 325 333 329 324 323 322 321 321 318 318 319 320 320 320 321 324 326 327 329 334 335 335 333 340 341 341 341 341 340 340 341 339 338 338 339 338 337 332 326 326 332 331 328 332 341 342
322 323 324 329 328 328 322 321 321 319 318 318 319 319 318 318 316 318 323 322 320 328 331 338 337 334 338 341 339 340 339 339 340 341 340 340 339 338 338 337 335 329 329 334 334 333 334 342 340
322 321 327 328 323 322 323 320 318 319 318 318 318 318 318 317 315 317 316 317 321 325 330 335 338 339 339 341 340 339 338 338 338 338 340 340 338 339 337 336 335 334 335 334 333 333 335 342 340
320 323 322 324 321 321 320 317 317 318 317 318 317 318 317 315 316 315 315 315 318 322 327 331 334 336 338 340 341 340 339 338 338 337 337 338 338 336 335 334 333 334 334 338 337 334 334 341 340
319 321 325 323 321 319 319 317 317 318 318 316 316 317 314 313 312 313 315 317 319 320 324 329 330 330 331 338 339 339 338 339 337 336 335 335 335 335 332 332 331 336 335 337 338 336 333 340 340
321 320 324 324 320 319 318 316 317 316 317 315 316 315 313 313 312 312 311 312 313 317 321 324 327 329 331 330 337 338 337 337 337 336 336 334 334 332 331 333 334 334 333 332 335 337 331 339 340
323 324 324 320 320 320 318 316 315 315 314 313 313 315 312 309 310 309 308 308 308 309 309 311 317 324 328 331 330 331 336 337 337 337 335 335 333 332 330 330 334 333 332 331 332 334 334 339 339
320 321 322 320 319 320 316 317 315 315 315 312 312 313 311 307 308 307 306 306 306 307 309 310 309 310 319 324 328 331 332 331 333 336 335 335 333 331 331 329 330 330 331 330 331 333 335 338 338
320 324 322 319 319 319 317 316 314 315 313 312 312 308 307 306 306 305 305 305 305 305 305 307 310 312 310 312 322 328 330 331 332 329 332 334 333 331 330 330 330 329 329 330 330 332 335 337 336
321 324 320 317 316 316 315 315 314 314 312 312 311 306 306 304 304 304 303 303 303 303 302 302 304 309 313 314 314 320 324 330 330 330 329 330 331 331 330 331 331 331 330 332 331 332 335 334 336
319 320 317 317 317 314 315 313 314 314 312 309 307 305 304 304 303 302 302 301 301 301 300 300 302 303 306 310 316 316 320 322 325 328 330 330 331 332 331 330 331 332 332 331 331 333 332 333 336
317 317 317 317 314 314 314 313 312 311 310 306 304 304 303 301 301 300 300 300 300 300 299 299 300 301 303 303 308 315 317 318 321 324 327 329 330 331 330 330 330 330 331 330 332 331 333 332 332
318 316 315 314 314 313 313 313 312 309 307 304 304 303 301 300 300 299 299 299 299 299 299 298 299 300 301 302 302 305 311 318 318 318 321 324 328 329 329 330 330 330 330 329 331 331 330 327 328
316 315 314 314 313 313 313 313 313 308 305 303 304 302 300 300 300 299 298 298 297 297 299 298 298 298 300 301 303 302 309 310 318 319 320 319 324 327 328 328 329 330 329 327 330 329 328 325 325
314 315 313 313 313 313 312 313 312 307 305 304 302 301 301 300 300 299 297 296 295 296 298 298 297 297 297 297 299 303 305 308 309 314 318 320 320 324 326 327 328 329 328 328 326 326 325 322 319
314 315 317 314 313 312 313 312 308 306 306 302 300 298 298 299 300 299 297 295 295 295 296 296 297 296 295 295 296 300 303 303 305 309 311 315 319 322 323 325 327 328 327 327 325 324 323 323 323
316 317 313 316 312 312 312 313 308 306 304 301 299 297 297 298 297 295 295 295 295 294 294 293 295 296 295 294 295 297 300 303 302 301 303 306 311 318 321 323 326 327 327 326 326 325 325 323 322
312 311 312 314 313 311 312 312 307 305 301 298 297 297 296 295 294 295 295 294 294 294 293 293 293 293 294 294 294 294 296 300 301 300 300 300 306 309 312 321 323 323 326 325 324 324 323 323 322
311 312 312 313 313 311 311 309 307 303 300 298 296 295 295 294 294 295 294 293 292 293 293 292 293 293 293 294 294 293 295 295 299 299 300 300 303 301 305 306 319 323 324 324 323 322 321 322 321
313 312 312 311 312 310 309 309 303 301 300 298 296 296 295 293 293 294 294 292 292 292 292 292 293 293 293 293 293 293 293 295 295 298 299 300 299 300 300 304 306 319 322 323 322 321 321 321 321
311 311 311 311 309 307 307 307 303 299 298 298 297 297 294 292 293 292 292 292 291 292 292 292 292 292 292 293 293 292 293 294 295 295 297 299 299 299 296 302 303 305 322 322 321 320 320 320 321
311 306 307 308 308 306 305 305 305 298 297 297 296 293 292 292 292 292 292 291 291 292 292 291 291 291 291 292 291 292 291 292 293 294 295 296 299 299 298 299 303 304 304 320 322 320 320 320 319
310 305 305 306 306 306 305 304 305 300 298 297 295 294 292 292 292 290 291 292 291 291 291 290 289 289 289 288 287 288 290 290 290 292 294 295 297 298 299 295 300 303 303 309 321 320 320 320 319
305 306 306 305 304 306 305 305 306 301 301 296 294 292 292 292 291 291 292 291 291 290 290 289 288 287 286 284 282 282 284 284 287 290 292 293 295 298 298 296 295 301 303 305 319 320 320 320 319
307 305 306 310 308 309 302 301 303 297 296 294 293 292 291 290 290 290 291 291 290 289 289 287 285 284 282 281 280 280 280 281 283 285 289 293 295 297 298 297 295 298 301 304 314 319 319 319 319
305 304 305 306 310 307 300 300 303 297 295 294 293 292 291 290 290 290 290 290 289 289 288 286 284 283 281 280 279 279 279 279 280 283 285 286 291 296 297 297 295 295 297 302 304 317 319 318 318
305 303 301 303 294 298 299 302 298 296 295 294 293 291 290 290 290 290 290 289 289 288 286 284 283 281 280 279 278 278 278 278 279 280 282 284 286 292 297 297 296 294 295 298 302 303 317 317 317
298 300 300 299 296 300 302 302 301 296 295 293 292 291 290 290 290 289 289 289 288 287 285 284 282 280 279 278 277 276 277 277 277 279 280 282 285 287 295 296 296 294 293 296 301 303 309 316 316
296 296 296 297 301 301 299 300 295 294 295 293 292 291 290 290 289 288 288 288 287 286 284 282 281 279 278 277 276 275 275 275 277 277 278 280 282 283 287 296 296 295 293 293 296 303 310 316 315
295 297 296 295 298 295 297 297 298 297 293 292 292 290 290 290 288 288 288 287 286 285 283 281 280 278 277 276 275 275 273 275 274 276 278 279 279 283 284 286 295 295 294 292 295 299 302 314 315

GFSSGP_925_thetae_009.txt.gz
Theta_e
321 323 323 323 325 318 319 320 317 317 317 316 317 317 318 317 317 318 320 321 318 329 329 338 338 334 338 341 340 340 339 339 338 338 339 339 337 337 338 338 335 333 329 332 335 335 333 335 341
321 323 323 320 322 319 316 316 316 316 316 316 316 315 315 313 312 315 315 317 320 324 330 331 337 338 337 340 340 338 339 339 339 340 340 339 337 338 338 337 336 333 330 334 334 335 334 334 341
320 321 320 322 316 316 317 315 315 315 314 316 315 312 310 311 312 313 316 318 319 322 329 331 331 332 334 338 340 340 339 338 338 337 339 338 338 337 337 336 335 332 333 335 335 334 334 333 340
318 318 315 318 318 317 314 314 316 316 315 315 315 311 309 310 312 309 310 314 318 318 321 324 327 327 328 329 334 338 339 338 338 337 337 338 338 336 336 335 334 330 330 337 337 337 331 332 338
318 313 318 319 317 315 313 314 315 315 314 315 313 311 309 309 307 307 307 308 309 309 310 313 317 324 326 328 330 333 337 337 337 336 336 336 336 336 334 334 332 329 330 335 337 338 337 328 334
315 312 317 317 316 314 313 314 314 312 311 311 311 310 307 307 306 306 306 305 305 304 306 309 311 312 316 319 326 328 329 332 336 337 336 335 334 334 335 333 331 331 331 334 334 334 333 336 328
319 315 319 317 316 316 315 314 314 312 311 311 311 310 305 305 305 304 304 303 302 302 301 302 308 309 311 312 317 322 326 330 331 331 333 335 335 334 333 332 331 330 333 333 332 331 330 333 331
314 313 319 317 316 317 315 314 313 311 311 310 308 308 305 304 302 302 302 301 300 300 300 301 301 303 301 311 314 315 318 322 326 330 330 329 331 333 333 333 331 330 328 330 331 330 329 331 333
316 318 319 316 316 315 313 314 310 309 307 305 305 304 303 302 301 300 300 300 300 299 299 300 300 299 299 300 300 307 314 315 318 321 326 329 328 327 329 331 332 330 329 328 329 329 329 330 333
316 317 317 314 314 314 313 312 312 310 308 305 303 302 302 301 300 299 299 298 299 299 299 298 299 298 299 299 298 297 298 307 314 315 316 321 326 329 328 328 330 331 329 329 328 328 329 330 334
315 316 315 314 313 313 313 311 310 308 308 305 303 301 300 299 298 298 298 298 297 299 299 298 298 297 298 297 299 298 298 301 302 311 315 317 319 322 328 330 329 330 330 331 331 329 330 331 334
314 315 315 314 312 313 313 311 308 308 305 302 301 300 299 297 296 297 297 296 296 297 299 298 297 296 296 296 296 297 299 301 299 300 304 313 318 322 323 326 329 330 330 331 331 331 330 331 334
315 315 314 313 312 311 311 311 307 303 302 301 301 299 297 296 297 297 296 295 295 296 297 296 297 296 295 295 295 295 297 301 302 299 301 307 314 318 322 323 325 328 330 330 330 330 330 331 332
315 314 313 313 311 312 311 309 307 304 300 301 300 298 297 297 297 297 295 295 294 294 293 293 294 294 295 295 295 294 294 297 300 301 300 306 305 309 316 321 323 325 327 329 329 329 329 330 330
312 313 312 312 311 311 311 310 309 303 301 301 299 297 297 297 297 296 295 294 294 293 293 292 292 293 293 293 293 294 294 294 295 299 301 299 301 301 298 307 318 323 325 327 329 327 328 329 329
313 312 313 313 311 311 309 308 305 302 300 298 296 295 296 296 294 294 294 293 292 292 293 292 292 292 293 292 292 293 293 293 293 296 298 299 299 299 299 308 308 314 323 326 327 327 323 325 327
313 313 311 313 310 311 309 309 305 303 300 297 294 294 295 293 293 294 293 292 292 291 292 292 292 292 292 292 292 292 292 293 293 293 294 296 298 298 302 304 304 303 308 323 326 325 323 321 321
310 308 309 310 311 309 310 309 305 302 299 295 294 293 293 292 292 294 293 292 291 291 292 291 291 291 291 291 291 291 292 293 292 292 292 295 296 297 300 299 300 299 301 306 323 324 323 322 320
310 310 309 309 310 309 308 309 304 301 296 294 293 292 291 291 293 293 292 292 291 291 291 291 291 290 290 290 290 290 292 291 291 291 292 294 295 297 297 299 299 299 300 304 304 323 323 322 321
311 311 309 308 309 308 307 307 307 300 297 295 293 292 291 291 292 292 292 292 291 291 291 290 290 289 289 289 289 289 288 288 289 289 291 292 293 294 297 299 299 298 300 302 303 304 323 323 322
310 309 308 309 307 305 305 304 302 299 297 295 294 292 291 291 292 291 291 291 291 290 290 289 289 289 288 287 286 286 285 284 285 288 289 290 290 292 296 297 299 297 296 302 302 303 304 322 322
308 306 306 306 305 305 304 305 301 297 297 296 294 290 290 290 291 290 291 291 290 290 290 289 289 288 286 285 284 282 281 281 281 282 282 283 287 291 294 296 298 298 296 295 302 302 303 309 321
308 304 304 304 304 304 304 303 302 298 297 297 292 290 290 290 290 290 290 291 290 290 289 289 288 286 285 284 282 281 280 280 279 279 279 280 284 288 291 292 296 298 296 295 298 302 302 302 320
305 306 304 303 302 304 303 303 302 297 298 296 291 290 290 290 290 290 291 290 289 289 289 288 287 285 284 283 281 280 279 279 278 278 279 280 282 285 286 292 296 297 296 295 296 298 303 303 312
306 303 306 306 305 308 300 300 303 299 297 295 290 289 289 289 289 288 288 288 289 288 288 287 286 285 283 282 280 279 279 278 278 278 278 279 280 282 283 285 288 296 297 295 294 296 300 302 300
306 302 306 307 306 308 300 303 302 295 293 291 290 289 289 289 288 288 288 288 288 288 287 286 285 284 282 281 280 279 278 277 276 277 277 277 277 279 281 283 285 291 296 295 294 295 299 302 302
303 302 301 303 288 295 299 298 296 294 293 291 290 289 288 289 289 288 288 288 288 288 287 286 284 283 281 280 279 278 277 276 275 276 275 276 278 278 279 283 286 287 296 295 294 294 296 302 303
299 299 301 301 307 298 300 301 302 294 293 291 290 289 289 290 289 287 287 288 288 287 286 285 283 281 280 279 278 278 277 276 275 274 275 275 275 276 279 281 282 285 290 295 294 293 294 299 302
294 297 297 298 302 304 300 304 296 295 294 291 290 289 289 288 288 287 287 287 287 286 284 283 282 280 278 277 277 277 276 275 274 273 273 273 275 275 277 277 280 283 285 293 294 293 293 296 300
296 298 299 302 303 298 299 301 296 295 293 290 289 289 289 289 288 286 286 286 285 284 283 282 280 278 277 276 275 275 275 274 273 273 272 272 272 274 275 276 278 280 283 287 293 293 292 293 296

GFSSGP_925_thetae_015.txt.gz
Theta_e
320 322 322 320 317 312 315 317 314 316 316 311 310 311 310 309 315 319 309 310 313 318 322 328 328 328 331 333 337 338 338 337 337 336 336 338 339 339 337 337 336 336 335 334 332 334 334 333 324
320 321 322 313 313 315 314 313 315 314 312 307 308 309 308 309 307 307 307 306 309 312 315 318 322 325 326 327 332 333 335 337 338 338 337 338 338 336 336 337 337 336 336 337 337 336 335 331 329
319 320 318 313 310 315 314 313 313 313 311 311 309 306 307 305 306 306 303 302 304 305 310 314 318 322 322 324 326 328 331 332 334 335 336 337 338 338 338 336 334 335 336 337 337 336 336 334 328
317 316 309 311 315 313 313 313 311 312 311 308 306 306 304 303 305 303 300 300 301 300 300 306 310 312 313 316 319 322 324 326 328 329 331 332 334 335 336 335 333 334 333 337 337 336 335 334 335
315 308 314 312 314 313 312 312 310 312 309 308 309 306 304 303 301 299 300 300 300 299 299 298 298 301 305 305 308 310 314 317 320 323 325 325 327 329 331 333 334 334 335 336 336 336 331 335 335
313 308 313 314 313 313 312 311 310 309 309 308 305 304 303 301 300 299 299 299 298 298 298 297 296 296 296 297 298 301 305 309 310 311 314 318 320 323 326 328 329 331 333 334 335 333 332 330 333
314 312 314 311 312 314 313 311 310 308 309 309 304 304 301 300 299 299 299 299 298 297 296 295 295 295 295 295 295 295 296 296 300 300 297 299 307 313 318 321 325 327 330 330 331 330 330 329 331
309 311 316 311 312 314 312 310 308 309 308 305 304 302 300 300 299 299 299 298 298 297 295 295 294 294 294 294 294 294 294 295 295 295 295 295 297 298 302 313 320 322 325 328 328 327 330 331 328
311 314 315 313 313 314 311 311 305 302 302 300 299 301 300 299 298 297 296 297 297 295 293 293 294 293 293 293 293 294 294 294 294 294 294 294 295 297 300 299 305 318 321 322 324 327 329 328 330
312 313 315 312 311 311 311 310 306 306 302 300 298 297 298 298 296 295 295 295 296 293 292 292 293 293 293 293 293 293 293 293 293 293 293 293 293 294 296 296 296 296 306 321 323 323 325 327 328
311 311 313 313 311 310 310 309 306 305 305 300 298 296 295 295 295 294 294 295 294 293 292 292 292 292 292 292 292 292 292 292 293 293 293 293 293 293 293 293 294 295 296 297 311 322 323 323 325
314 313 312 312 311 310 309 307 307 305 307 302 297 296 295 294 293 293 294 294 293 293 292 292 292 291 291 291 291 291 291 291 292 292 292 292 292 292 293 293 292 293 296 295 303 307 319 324 324
314 313 312 310 309 309 308 309 308 304 299 297 296 295 293 293 293 294 293 292 292 292 292 291 291 291 291 291 290 290 290 290 291 291 291 291 291 291 291 291 292 293 296 299 301 299 299 308 320
312 312 311 310 309 308 309 308 306 302 297 296 295 294 293 293 293 293 292 291 291 292 291 291 291 290 290 290 289 289 289 289 290 289 289 289 289 289 289 290 292 294 295 298 297 298 296 299 304
310 311 309 309 308 310 307 308 307 301 296 296 295 294 294 294 294 292 291 291 291 291 291 290 290 290 289 289 288 288 288 288 288 288 288 287 287 287 288 289 292 294 296 295 297 297 295 298 299
311 310 311 311 308 309 307 309 307 299 298 297 295 293 294 293 293 292 291 291 291 291 290 290 290 289 288 288 287 287 287 287 287 287 287 286 286 286 287 288 290 293 295 294 298 297 297 298 299
307 312 311 310 307 308 306 308 306 299 299 298 295 294 294 291 290 291 291 290 290 291 290 289 289 289 288 287 286 286 286 286 286 286 287 287 287 286 285 284 286 289 292 295 296 295 297 298 298
315 310 307 307 308 308 308 307 305 299 299 299 296 294 293 290 289 290 290 290 290 290 290 289 289 288 287 286 285 286 286 285 286 285 284 285 284 284 283 283 284 284 286 291 294 296 298 297 298
308 307 306 305 307 309 308 308 309 302 299 298 293 293 293 290 290 291 290 290 290 289 289 289 288 288 287 286 285 285 283 284 283 283 283 283 283 282 281 280 281 281 282 285 290 295 297 297 297
307 308 307 306 306 306 306 306 306 303 301 300 297 294 293 289 288 289 289 290 290 289 289 289 288 288 287 286 285 284 283 282 282 281 281 281 281 281 280 280 280 280 282 284 289 292 295 297 297
307 308 307 308 304 303 301 302 304 303 301 300 298 295 292 290 289 288 288 289 290 289 289 289 288 287 287 286 285 284 283 282 281 280 280 280 280 280 280 280 279 280 280 284 285 288 294 296 296
307 306 307 306 304 306 303 309 304 303 301 298 297 292 292 289 289 288 288 289 290 289 289 288 288 287 286 285 284 283 282 281 280 280 279 279 279 279 279 278 279 279 281 280 282 286 291 294 294
308 304 305 304 304 303 303 303 303 299 301 302 296 293 292 290 289 287 288 290 290 289 289 288 288 286 286 285 283 282 281 280 279 279 278 278 279 279 278 278 278 277 277 278 280 283 286 293 294
304 305 303 299 300 305 304 304 303 302 302 300 296 294 291 289 287 287 289 290 290 289 288 288 287 286 285 284 283 281 280 280 279 278 278 278 278 278 277 277 277 276 276 277 279 281 283 285 290
304 305 311 311 305 311 300 300 308 306 302 298 297 293 290 289 287 287 286 288 289 288 288 288 287 285 284 283 282 280 279 278 278 277 277 277 277 277 277 276 276 275 276 277 277 278 279 284 287
304 306 311 310 310 311 301 306 306 299 294 292 293 293 290 288 287 287 286 288 288 288 287 287 285 284 283 281 280 279 278 277 277 276 276 276 276 276 276 276 275 275 275 274 275 277 280 281 285
304 304 303 305 285 297 305 301 300 294 292 290 292 290 289 288 287 287 287 288 288 287 287 286 284 283 281 280 279 278 277 276 275 275 275 275 276 276 275 275 274 274 274 273 274 275 277 280 284
301 299 303 300 303 304 306 305 309 303 297 290 289 289 288 287 286 286 286 287 287 287 287 285 283 281 280 279 277 276 275 275 274 274 274 275 275 274 274 274 274 274 273 273 274 275 277 278 281
297 299 299 300 305 307 304 311 302 304 299 292 290 290 288 287 287 286 286 287 287 286 285 283 281 280 279 277 276 275 274 273 273 273 274 274 274 274 274 273 273 273 273 273 274 274 274 275 278
299 301 302 305 303 300 304 311 299 298 298 291 290 290 288 287 286 285 286 286 285 285 283 282 280 278 277 276 274 273 273 272 272 273 273 273 273 273 273 272 272 272 272 272 273 273 274 275 279

GFSSGP_925_thetae_021.txt.gz
Theta_e
320 321 322 318 319 317 316 316 312 314 314 309 309 311 314 310 317 320 305 305 309 315 318 319 323 326 328 329 331 332 333 333 334 334 335 336 336 337 337 337 337 336 336 338 339 339 339 336 333
320 321 319 311 317 317 316 312 314 313 310 306 307 308 310 312 306 305 306 302 308 312 313 313 316 318 319 321 323 325 328 329 329 329 330 331 331 333 334 335 335 335 335 336 337 337 338 336 333
319 318 317 313 312 317 316 312 311 309 307 308 308 305 307 308 304 303 301 300 305 309 310 310 312 313 314 315 317 319 319 319 320 322 324 326 326 327 328 329 331 332 333 335 336 336 337 336 334
318 314 308 315 315 313 313 311 310 309 308 307 306 308 303 302 303 301 299 298 298 301 303 306 307 309 310 311 312 313 313 311 312 313 315 317 319 321 322 324 327 328 330 332 334 334 334 334 334
312 310 313 313 313 311 309 309 309 310 309 308 306 308 305 301 301 299 298 297 297 296 297 299 300 303 304 305 306 308 308 305 305 303 302 302 304 310 313 317 318 318 322 325 327 330 331 332 331
314 309 315 315 312 311 310 308 309 309 307 306 307 305 304 300 298 298 298 297 296 295 295 294 295 297 299 299 301 302 302 301 299 298 297 297 297 298 299 299 303 310 314 316 321 323 326 328 329
314 313 314 312 312 312 311 306 308 308 307 308 304 306 302 299 298 297 297 296 295 294 294 294 295 295 295 295 295 295 296 296 297 296 295 295 295 295 296 296 296 299 300 305 312 315 320 323 327
308 311 311 309 312 313 309 308 306 309 308 302 302 307 306 300 298 297 297 295 294 294 294 294 294 294 294 294 294 294 294 294 294 294 294 294 295 294 295 295 295 295 296 296 297 301 310 317 320
308 313 314 313 311 313 307 310 304 301 304 302 302 301 300 301 298 297 296 294 293 293 294 293 293 293 293 293 293 294 294 294 294 294 294 294 294 294 294 294 294 294 294 295 295 296 297 300 309
311 312 314 310 308 311 308 309 306 306 304 303 300 297 297 298 297 296 295 294 292 292 292 293 293 293 293 293 293 293 293 293 293 293 293 293 293 293 293 294 293 294 294 294 294 295 295 295 296
309 310 312 312 310 309 309 308 304 306 307 306 304 298 296 296 295 294 295 294 293 292 292 292 292 293 293 293 293 293 293 293 293 293 292 292 292 292 292 293 293 293 293 293 293 294 294 294 294
313 311 310 312 311 309 310 304 306 304 309 303 301 298 296 295 294 293 294 293 292 292 292 292 292 293 293 293 293 293 292 292 292 291 291 292 291 291 291 291 292 292 292 292 292 292 292 293 293
312 311 310 310 309 309 305 307 308 304 303 299 297 296 296 296 294 294 294 293 292 292 292 292 292 292 292 292 292 292 291 291 291 290 290 289 289 289 289 289 290 290 290 290 291 291 291 292 294
309 311 310 309 309 308 309 307 307 305 297 297 296 297 296 295 294 292 292 292 292 292 292 292 291 291 291 291 291 291 291 290 289 289 288 288 288 288 288 288 289 289 289 289 289 289 290 291 293
308 311 308 308 308 309 306 308 307 304 297 298 296 296 295 295 293 292 292 292 292 292 291 291 291 290 290 290 290 289 289 288 288 288 288 287 287 286 286 286 287 287 288 287 288 288 289 292 293
310 308 312 310 307 308 307 312 309 300 298 300 296 295 295 294 293 292 293 292 291 291 291 291 290 290 290 289 289 289 288 288 288 287 287 286 285 286 286 286 286 286 286 286 285 285 287 289 291
308 311 311 310 306 308 307 311 308 299 298 301 297 296 295 295 292 292 292 291 291 291 291 290 290 290 289 289 289 288 288 288 287 286 286 286 286 285 284 284 285 285 284 284 284 284 284 285 287
308 311 309 310 308 306 307 307 308 303 299 302 301 297 295 295 295 293 292 291 291 291 290 290 290 289 289 288 288 288 287 287 287 286 286 286 285 284 282 283 284 283 283 283 283 283 283 285 287
310 311 310 307 305 307 305 307 309 308 301 302 300 297 296 296 296 293 291 290 290 290 289 289 289 289 289 288 287 286 286 286 286 286 285 284 283 282 282 283 283 283 283 282 282 282 282 285 285
308 309 307 306 304 304 305 306 307 306 308 307 304 300 297 297 293 290 289 289 289 290 289 289 289 288 288 287 287 286 285 285 285 285 284 283 283 282 282 283 283 283 281 281 281 281 282 283 282
307 307 307 308 304 302 301 303 303 303 303 303 303 301 298 298 295 291 289 288 288 289 289 289 288 288 287 287 286 285 284 284 284 284 284 284 283 283 282 282 281 281 280 280 280 280 280 280 280
310 305 306 306 305 308 303 310 305 305 306 305 305 300 300 297 296 292 290 288 287 288 289 289 288 287 287 286 286 285 283 282 283 282 282 282 281 280 280 281 281 281 280 279 279 279 279 278 279
309 303 304 304 304 302 304 305 306 301 305 307 306 301 299 296 295 293 290 289 288 288 289 289 288 287 286 286 285 284 283 282 282 281 280 280 279 280 281 280 279 279 279 278 278 278 278 277 278
302 304 301 298 300 306 307 307 305 304 305 305 304 302 299 295 293 292 290 289 288 288 289 288 288 288 286 285 284 283 283 282 281 280 278 277 278 279 279 279 278 278 278 278 278 278 277 277 277
304 307 311 309 307 311 300 303 308 306 303 304 307 303 297 294 291 290 289 288 287 287 288 288 288 287 287 285 284 283 282 281 279 278 277 277 277 278 278 277 277 277 277 277 277 277 276 276 277
303 307 311 307 307 308 299 306 308 302 305 301 299 297 293 292 289 289 289 288 288 287 287 288 287 287 286 284 284 282 281 280 279 277 276 276 276 276 276 276 276 276 276 276 276 276 276 276 276
304 306 305 306 287 301 307 305 304 302 301 299 298 293 293 292 289 288 288 288 287 287 287 287 287 287 285 284 283 281 280 279 278 277 276 276 276 275 275 275 275 275 275 275 275 275 275 275 275
302 300 306 305 308 305 308 307 308 306 305 303 301 299 295 292 288 287 287 287 287 287 287 287 287 286 284 283 281 280 279 278 277 276 277 275 275 275 274 274 274 274 274 274 274 274 274 274 274
300 301 300 303 305 307 308 310 303 305 304 304 303 299 296 293 289 287 287 287 286 286 287 286 286 284 283 281 280 278 277 277 276 275 275 274 274 274 273 273 273 273 273 273 273 273 273 273 273
300 303 303 307 306 301 303 310 306 305 303 301 302 298 295 292 289 287 286 286 285 285 284 284 284 283 281 280 278 277 276 275 275 275 274 273 273 273 273 272 272 272 271 271 271 271 271 272 272

GFSSGP_925_thetae_024.txt.gz
Theta_e
320 321 322 323 326 323 322 321 319 319 319 316 316 319 321 319 322 323 308 306 310 314 316 320 322 324 326 329 331 332 333 333 333 334 333 333 334 334 335 336 336 336 336 337 338 339 338 337 336
320 321 322 323 327 324 322 320 320 319 317 315 314 315 318 320 312 312 309 304 309 311 314 316 317 319 321 323 324 325 328 329 330 330 330 330 330 331 331 331 332 333 333 336 337 337 335 336 336
319 319 327 325 323 322 322 319 320 316 315 315 315 311 315 317 310 310 305 303 308 309 312 313 314 316 316 318 319 318 318 318 319 320 321 322 325 325 326 327 328 329 330 332 334 334 334 335 334
319 319 317 322 322 321 320 319 318 316 313 312 314 316 309 307 309 306 301 301 305 306 308 309 311 312 312 313 314 313 312 312 312 313 313 316 317 316 317 319 320 323 325 326 328 330 331 332 332
316 321 322 322 321 318 317 317 317 317 317 315 312 317 313 306 304 301 299 299 300 301 304 305 304 305 308 309 309 309 308 307 307 306 305 307 308 307 306 308 311 313 316 319 322 325 325 327 330
321 319 321 321 320 317 316 315 317 317 315 313 313 313 313 305 302 300 299 298 298 297 296 297 297 300 301 304 304 303 302 300 299 298 297 297 297 297 297 297 299 301 303 306 310 313 316 320 323
322 322 322 321 320 318 317 314 316 317 316 315 312 316 310 303 302 300 299 298 297 296 295 295 295 294 295 296 297 297 297 296 296 295 295 295 295 295 295 295 296 296 297 297 298 299 304 313 319
319 322 320 319 320 320 315 314 312 315 316 308 311 317 316 306 300 299 298 298 297 296 295 295 294 294 294 295 295 295 295 294 295 295 295 295 295 295 294 294 295 295 296 296 298 299 299 298 298
316 321 321 320 318 319 313 315 310 308 312 309 309 309 306 304 299 299 298 297 296 295 295 294 294 294 294 294 294 294 294 294 294 294 294 295 295 294 294 294 294 294 295 295 295 295 296 296 297
320 321 319 317 317 317 314 315 314 312 312 311 309 306 301 302 300 300 300 299 297 296 295 294 294 294 294 293 294 294 294 294 294 294 294 294 294 294 294 294 294 294 294 294 294 295 295 298 300
316 319 316 316 314 314 315 313 313 314 315 315 315 312 303 302 301 301 301 301 298 296 295 294 294 293 293 293 293 293 293 293 294 294 293 293 293 293 293 293 293 293 293 295 296 298 298 298 299
318 314 315 315 314 313 314 312 312 313 317 313 313 311 305 304 303 302 302 301 298 295 295 293 293 293 293 293 293 293 293 293 293 292 292 292 292 291 291 292 292 292 293 293 294 295 296 296 297
316 315 314 314 313 313 310 313 314 313 313 311 307 306 306 305 304 302 302 300 297 295 294 294 293 293 292 293 292 292 292 292 291 291 291 291 290 290 290 290 290 291 291 291 292 293 294 295 296
314 314 315 314 314 312 313 314 310 315 311 311 306 307 306 305 304 302 300 299 297 295 294 293 293 292 292 292 292 292 291 291 290 290 291 290 289 288 289 289 289 289 289 289 289 290 291 293 294
312 315 315 314 313 314 311 315 313 315 306 309 307 307 306 305 303 302 300 299 296 295 294 293 292 292 292 291 291 291 290 290 290 290 289 288 288 288 287 288 288 288 287 288 288 289 290 290 291
315 314 319 315 312 311 312 316 318 314 309 311 310 308 306 304 303 301 300 298 296 295 294 293 292 291 291 291 291 290 290 290 289 289 288 288 287 287 286 287 287 286 286 287 288 288 288 289 289
316 318 317 316 312 312 313 317 316 309 308 311 313 310 307 305 303 301 299 297 295 295 293 293 292 291 291 290 290 289 289 289 289 288 288 287 287 286 285 285 285 285 286 286 287 287 287 288 288
317 317 316 316 314 311 314 315 315 314 309 311 313 312 309 305 304 301 299 296 294 294 293 293 292 292 290 290 289 289 289 289 288 288 287 286 285 285 284 284 284 285 285 286 286 286 286 287 288
313 314 316 318 311 312 314 314 314 313 313 312 312 313 311 307 305 302 299 296 293 293 292 292 292 291 290 290 290 289 290 289 288 287 287 285 285 284 284 284 284 284 285 285 285 285 286 286 286
315 317 318 317 309 309 313 312 312 311 312 312 313 313 312 309 305 303 299 295 292 292 292 291 291 291 290 290 289 289 289 288 287 286 286 285 285 284 283 283 283 284 284 284 285 284 285 285 286
315 317 318 315 310 308 308 312 311 311 309 310 310 311 311 309 307 303 298 295 293 292 291 291 291 291 290 289 288 287 287 286 286 287 286 285 284 283 282 282 282 283 283 284 284 284 284 284 284
317 314 313 312 312 317 308 316 315 313 312 310 313 313 310 307 305 303 299 296 294 293 291 291 290 290 289 288 288 288 288 289 288 286 285 284 283 282 282 281 281 282 283 283 283 282 283 283 283
316 307 309 309 311 309 314 312 313 307 310 311 312 313 310 308 305 303 300 297 295 292 291 291 290 289 288 288 288 288 287 287 286 285 284 283 282 282 281 281 281 282 282 282 282 282 282 282 282
305 308 308 306 309 315 315 314 313 311 311 311 312 312 309 306 304 303 300 296 294 292 291 291 290 289 288 287 287 287 287 286 285 284 283 282 282 281 281 280 280 281 281 281 281 281 281 281 281
308 313 317 321 319 318 309 309 311 310 310 311 313 313 307 305 303 302 299 295 294 291 290 290 290 289 288 288 287 286 286 285 284 283 282 281 281 281 280 280 280 280 280 280 280 280 280 280 280
310 314 321 322 318 317 307 310 312 310 310 310 307 307 304 303 301 300 298 296 293 291 290 290 289 289 288 287 286 285 284 283 282 281 281 280 280 279 279 279 279 279 279 279 279 279 279 279 279
309 313 311 317 306 314 314 314 312 309 308 307 306 306 307 304 301 299 297 295 294 291 291 290 290 289 288 287 286 284 283 282 281 280 279 279 278 278 278 278 278 278 278 278 278 278 278 278 278
306 306 312 313 321 320 316 316 315 312 310 309 307 307 309 305 302 299 297 294 293 292 291 290 290 289 288 287 285 283 282 280 279 278 278 278 277 277 277 277 277 277 277 277 277 277 277 277 277
304 308 306 307 311 317 317 314 310 310 309 309 309 310 310 306 304 301 297 294 293 292 291 290 289 289 287 285 283 282 280 279 278 277 277 277 276 276 276 276 276 276 276 276 276 276 275 275 275
304 309 309 313 314 311 313 314 308 310 309 308 308 307 306 304 304 302 297 294 292 291 291 290 289 288 286 283 282 280 279 278 277 277 276 276 276 276 275 275 275 275 274 274 274 274 274 274 274

GFSSGP_925_thetae_027.txt.gz
Theta_e
322 325 325 327 329 326 324 322 322 321 321 321 321 322 322 322 324 325 313 313 317 318 320 322 323 325 326 329 331 332 332 332 333 333 334 334 336 334 335 334 334 334 336 338 338 339 338 337 336
323 323 325 329 328 328 325 322 321 320 320 319 319 319 320 322 318 315 313 311 314 315 318 318 319 322 323 324 324 326 327 329 329 328 327 328 329 329 331 328 331 332 334 335 336 337 337 336 336
321 321 328 327 326 323 323 322 321 320 318 319 319 317 319 320 315 315 309 310 313 314 315 315 316 317 319 320 319 318 319 319 320 320 322 323 321 320 321 322 324 324 325 326 327 329 331 333 333
322 322 322 322 322 323 321 321 321 319 317 317 318 319 314 312 314 312 307 309 311 311 312 312 313 314 315 316 315 315 314 314 313 313 315 314 309 307 307 309 313 315 317 319 322 325 326 325 327
320 324 324 322 321 321 320 320 320 320 319 318 317 319 317 310 308 306 304 306 308 308 308 309 307 310 311 311 311 310 310 309 308 306 306 307 305 303 301 306 307 307 307 309 312 313 316 320 322
323 322 322 322 321 321 320 319 319 320 319 318 317 318 318 310 307 305 303 303 303 304 305 304 302 303 305 303 303 304 304 303 301 299 298 298 297 297 297 297 297 297 298 298 298 299 302 304 311
324 324 323 323 321 321 320 318 319 320 319 318 317 318 315 309 307 305 303 302 301 300 300 301 301 298 297 298 298 299 297 296 296 296 296 296 296 296 296 296 296 296 297 297 297 297 297 297 298
321 322 323 322 322 322 319 318 318 319 320 314 315 318 319 312 307 304 303 302 300 300 300 300 299 299 301 297 295 295 295 295 295 295 295 296 297 296 295 294 294 295 295 297 299 298 296 296 297
320 322 324 323 321 322 318 318 315 314 317 315 315 315 311 310 305 303 302 302 301 299 299 299 299 299 299 298 294 295 295 295 295 297 295 298 298 296 297 295 294 294 294 295 296 300 301 299 301
322 324 323 321 320 319 318 317 318 315 316 317 315 313 307 307 304 304 304 303 301 300 299 298 298 298 298 296 296 296 296 296 296 296 296 296 296 295 295 295 294 294 294 297 298 299 300 299 300
321 322 321 319 318 317 318 317 317 316 318 318 318 317 309 307 305 305 305 304 302 301 300 298 298 298 298 296 298 298 298 298 296 294 294 295 295 295 295 295 295 294 295 295 295 297 298 297 299
320 320 319 319 317 316 317 317 317 316 319 317 319 318 313 309 307 306 306 305 304 302 300 298 297 297 298 298 298 298 298 297 296 294 293 294 294 294 294 294 294 294 294 293 294 294 294 296 297
319 320 318 317 316 316 315 316 317 318 318 317 314 313 314 310 309 307 307 306 305 302 300 298 297 297 297 297 297 297 296 296 295 294 293 293 294 293 293 293 293 293 292 292 292 293 293 293 295
319 318 318 317 317 316 315 317 315 318 317 317 316 313 312 312 310 309 307 307 306 302 300 298 297 297 296 296 296 296 295 294 294 293 292 291 292 291 291 292 292 292 291 290 291 291 292 293 293
316 317 318 318 317 316 315 316 317 317 315 316 316 314 313 312 310 309 308 307 305 302 300 298 296 296 296 296 296 295 295 294 294 292 291 291 290 290 290 291 291 290 289 290 290 291 291 291 292
317 318 319 319 317 315 315 318 318 318 316 315 315 315 313 312 311 310 308 306 305 302 300 298 296 295 295 295 295 294 293 293 292 292 291 290 289 289 289 289 290 289 289 289 290 290 290 291 291
320 320 320 320 316 316 316 318 318 317 315 315 316 316 315 313 311 309 308 306 304 302 299 297 295 295 295 294 294 293 293 292 292 291 290 289 289 288 288 288 288 288 288 288 289 289 289 289 289
318 319 318 318 318 316 317 316 317 317 317 316 316 315 315 316 313 309 308 306 303 301 299 297 295 294 294 293 293 292 292 292 291 291 290 289 288 288 287 287 287 287 288 288 288 288 288 289 289
318 318 317 317 316 316 317 317 317 318 317 317 317 316 316 315 315 311 307 305 302 300 299 296 295 294 294 293 292 292 292 292 291 290 289 288 288 287 286 287 287 287 287 287 287 287 288 288 288
318 318 317 318 317 314 316 317 317 317 317 316 316 315 315 315 315 312 308 305 301 299 297 296 295 295 293 293 293 293 293 292 291 290 289 288 287 286 286 285 286 286 286 286 287 287 287 287 288
316 317 317 317 317 312 313 315 316 315 315 314 314 314 314 314 315 312 308 304 301 298 297 296 295 294 293 293 293 291 291 290 289 289 289 288 287 286 285 285 285 285 285 286 286 286 286 286 287
317 316 317 318 318 318 313 317 317 316 316 315 315 315 315 315 314 312 308 304 301 298 297 295 295 294 293 292 292 291 290 291 291 291 289 288 286 285 285 284 284 284 285 285 286 285 285 285 286
316 311 314 316 317 317 316 317 316 314 314 313 314 314 315 315 312 309 307 304 301 298 297 295 294 293 293 292 291 291 291 291 291 289 288 287 286 285 284 284 284 284 284 284 285 284 285 285 285
310 312 313 312 314 318 316 317 316 316 313 313 312 312 314 312 310 308 306 303 301 299 297 295 294 293 293 292 291 290 290 291 290 289 288 287 286 285 284 283 283 283 283 283 284 283 283 283 284
311 315 318 323 322 321 317 317 316 315 313 313 313 313 313 311 309 308 306 303 301 299 296 295 294 293 292 291 291 290 290 290 289 288 287 287 286 285 284 283 283 282 282 282 282 282 282 282 282
312 316 321 325 321 320 316 316 315 315 314 313 312 313 311 309 309 308 306 304 301 298 296 295 294 294 292 291 290 290 289 289 288 287 286 285 284 284 283 282 281 281 281 281 281 281 281 281 281
313 314 315 320 321 321 315 315 316 314 313 312 312 310 311 309 308 307 306 303 301 298 296 295 294 294 292 291 290 289 288 287 286 285 284 283 283 282 281 280 280 280 280 280 280 280 280 280 280
310 310 315 315 322 320 317 320 320 318 315 313 311 311 311 312 310 307 305 303 301 299 296 295 294 294 293 291 290 289 287 286 285 284 283 282 281 281 280 279 279 279 279 279 279 279 279 279 279
307 310 309 310 316 321 321 318 314 314 315 314 313 311 311 313 310 308 305 302 300 299 296 295 294 293 292 291 289 288 286 285 284 282 281 281 280 279 279 279 278 278 278 278 278 278 278 277 277
309 313 313 314 315 313 315 316 311 313 312 313 312 311 312 311 311 310 307 303 300 298 297 295 294 293 292 290 289 287 285 283 282 281 280 280 279 278 278 278 277 277 277 277 276 276 276 276 276

GFSSGP_925_thetae_030.txt.gz
Theta_e
321 326 325 327 331 327 328 323 321 321 321 320 319 321 321 321 324 326 316 317 319 321 323 321 325 327 328 330 329 331 332 332 332 332 332 333 332 332 332 331 333 334 334 335 335 335 336 335 335
324 324 325 329 329 331 326 320 320 320 319 318 318 319 320 320 317 313 312 316 317 319 320 319 321 324 325 324 327 327 328 328 328 328 329 328 326 325 325 326 325 326 327 328 329 330 330 331 332
321 322 327 329 327 325 324 321 319 318 317 318 318 317 318 318 315 313 312 314 315 317 316 316 318 321 321 320 320 320 320 321 320 323 322 320 318 317 317 317 317 318 320 321 322 323 323 325 326
322 322 322 321 322 321 321 320 318 317 317 317 318 318 314 313 315 314 310 313 314 314 314 315 316 317 318 317 315 314 312 311 310 313 313 311 307 307 307 305 303 303 304 307 311 312 314 315 317
319 323 325 324 322 320 319 319 319 318 317 316 317 318 316 311 311 310 309 312 312 312 312 310 314 314 315 314 314 313 312 310 305 304 303 301 299 298 298 299 299 300 304 308 308 304 305 302 301
322 321 324 323 323 320 319 319 318 318 317 316 315 316 315 311 308 307 307 309 309 309 309 307 309 310 310 310 309 308 306 303 301 300 299 297 297 297 297 297 297 297 298 298 298 298 299 298 298
323 327 325 323 322 322 320 318 318 318 318 316 317 317 312 308 308 306 304 305 305 306 306 303 302 302 302 301 302 301 299 298 297 296 296 296 296 296 296 296 296 296 296 297 297 297 297 297 297
320 322 323 323 322 322 319 317 316 318 319 316 315 316 315 310 308 305 304 303 302 301 301 302 301 299 298 297 297 296 296 296 296 296 296 298 297 296 295 295 296 298 300 303 303 304 302 299 303
320 321 323 324 322 322 316 317 315 314 316 316 314 315 311 309 307 304 303 302 301 300 300 300 300 299 300 298 295 295 295 295 296 297 298 298 296 296 296 295 296 296 297 300 300 301 301 296 297
321 325 326 321 319 320 317 316 316 315 314 315 314 310 310 308 306 304 303 302 302 300 300 300 300 299 299 298 295 298 297 298 297 297 296 297 297 296 296 295 294 294 294 294 294 294 294 294 295
320 322 321 320 319 317 317 317 316 315 315 315 314 312 307 307 305 304 304 303 302 301 300 299 299 299 298 297 298 297 298 297 296 295 296 296 296 295 295 295 294 294 293 293 293 293 293 293 294
320 320 320 319 317 317 316 317 316 314 315 317 315 315 307 306 305 305 305 305 304 302 301 299 299 299 298 297 298 298 297 297 296 295 295 295 295 295 295 294 293 293 293 292 292 292 292 292 293
319 318 319 318 316 315 315 314 315 314 313 314 314 313 308 307 306 306 306 306 305 303 301 299 298 298 298 298 298 298 297 297 296 295 294 294 294 294 293 293 292 292 292 291 291 291 291 291 292
318 317 316 317 316 315 315 315 315 314 313 313 314 310 310 308 308 308 307 307 306 304 302 300 298 298 298 297 297 297 297 296 295 294 294 293 293 293 292 292 292 292 291 290 290 291 291 291 291
317 315 316 316 316 316 316 315 314 313 315 314 313 312 309 309 310 309 308 307 307 306 303 300 298 297 297 297 297 296 296 295 294 294 292 292 292 292 291 291 291 290 289 289 289 290 290 290 290
315 316 317 318 316 314 314 315 316 314 313 312 312 311 311 309 310 310 310 308 307 306 303 300 298 297 297 296 296 296 295 294 294 293 292 292 291 291 290 290 290 289 289 289 289 289 289 289 289
317 317 318 319 317 314 313 315 318 315 315 313 311 311 311 310 309 311 311 310 308 306 302 299 298 297 296 296 296 295 295 293 293 292 292 291 290 290 289 289 289 289 288 288 289 289 288 288 288
318 318 317 317 316 315 314 314 314 314 313 311 311 311 311 311 310 311 311 310 308 306 302 299 297 296 296 295 295 294 294 293 293 292 291 291 290 290 289 289 289 288 288 288 288 288 287 287 288
316 317 317 317 316 315 314 315 315 315 313 313 314 314 312 312 311 312 310 309 307 305 301 299 297 295 295 295 294 293 293 292 292 291 291 291 290 289 289 289 289 288 287 287 287 287 287 287 287
316 316 316 316 315 314 314 315 314 314 314 314 314 313 313 311 310 308 308 308 306 303 301 299 297 295 295 294 293 293 292 292 292 291 291 290 289 289 288 288 288 287 287 286 286 287 287 286 287
315 315 315 315 314 312 313 313 313 312 313 313 313 312 312 310 309 307 306 305 305 302 300 298 297 296 294 294 293 293 293 293 292 291 290 289 289 288 288 288 287 286 286 285 286 286 286 286 286
314 314 315 315 314 315 313 314 314 314 313 312 311 310 310 308 308 307 305 304 303 301 300 298 296 296 295 294 293 293 292 291 291 291 290 289 288 288 288 287 286 286 285 285 285 285 286 285 285
314 312 313 314 315 316 316 315 313 312 312 312 311 310 311 311 308 306 305 304 302 301 299 298 296 296 295 294 293 293 292 292 292 290 290 289 288 287 287 286 286 285 285 284 284 285 285 284 285
310 312 312 312 312 314 313 314 313 312 312 312 310 309 309 308 307 306 305 304 302 301 299 297 296 296 295 294 293 293 292 291 291 291 289 289 288 287 286 286 285 285 284 284 283 283 284 284 283
311 314 316 318 315 316 312 313 314 313 310 309 309 309 308 307 305 304 302 301 301 299 298 297 296 295 295 294 293 292 292 291 291 290 289 288 287 286 286 285 285 284 283 283 283 283 282 282 282
310 313 317 317 315 315 314 313 313 312 311 309 308 309 307 306 305 304 302 301 301 300 298 297 295 294 294 294 293 292 291 291 291 290 290 289 288 287 286 285 284 283 283 282 281 281 281 281 281
312 312 314 315 308 312 313 311 312 311 310 309 309 308 306 305 304 304 303 301 301 300 298 297 295 294 293 293 292 292 291 291 291 290 289 288 287 286 285 284 283 282 281 281 280 280 280 280 280
308 309 313 314 311 311 311 309 312 313 313 308 308 307 307 306 304 303 302 301 301 300 299 297 295 294 294 293 292 291 290 290 290 289 288 287 286 285 284 283 282 281 281 280 280 279 279 279 279
306 308 309 310 315 313 312 313 308 313 313 310 307 308 307 307 305 303 302 302 302 300 299 297 295 294 294 293 292 291 290 290 289 288 287 286 285 284 283 282 281 280 280 279 279 278 278 278 277
308 310 309 312 313 311 312 316 309 310 311 309 308 308 307 307 305 303 302 300 300 300 298 297 295 294 294 293 292 291 290 289 287 287 286 285 284 283 282 281 280 279 279 278 277 277 277 276 276

GFSSGP_925_thetae_033.txt.gz
Theta_e
321 324 324 325 324 319 323 322 317 319 319 316 316 318 318 318 322 322 318 321 322 322 321 323 325 329 331 330 331 332 333 333 332 332 332 332 332 332 330 331 331 332 333 333 333 332 332 332 332
323 323 324 321 323 323 323 318 318 317 317 315 316 318 317 319 314 313 315 319 320 322 320 320 323 325 327 328 327 329 330 330 329 331 329 327 326 326 325 324 324 325 326 326 326 325 325 326 327
320 321 320 322 320 321 319 316 315 316 315 317 317 315 316 316 312 313 313 318 318 319 319 318 322 325 324 324 324 325 325 325 326 325 322 320 319 318 317 316 314 314 314 316 317 317 317 315 318
321 319 314 315 319 316 318 315 315 315 315 315 315 316 312 313 313 313 314 316 317 317 315 317 321 322 321 320 319 319 319 318 320 318 315 313 311 308 304 304 306 308 311 311 310 311 311 307 307
319 315 320 318 317 316 317 315 313 315 314 315 315 316 314 311 314 313 314 315 315 315 313 315 318 319 318 317 316 315 312 308 309 309 308 305 305 307 307 307 307 306 308 309 309 308 308 304 301
315 313 317 319 318 317 316 313 314 315 314 313 315 313 312 310 311 311 313 313 313 313 311 311 313 314 312 312 310 308 306 303 303 303 303 301 300 300 299 302 305 307 308 308 308 307 307 307 308
319 320 320 319 319 318 317 314 314 314 313 314 312 315 309 306 309 309 311 312 311 311 309 307 307 307 306 304 302 302 301 299 299 300 299 298 296 296 296 296 298 298 300 301 303 305 305 306 305
315 314 319 318 319 319 316 316 315 314 314 312 312 313 313 307 307 307 308 309 308 308 308 304 303 303 302 301 300 299 298 297 297 296 296 297 297 296 296 296 297 299 303 304 305 304 299 296 296
317 314 316 318 320 319 315 316 314 312 315 314 313 313 311 310 307 305 304 304 304 305 305 303 301 300 299 298 298 297 296 296 296 296 297 297 296 297 297 295 296 295 296 298 297 296 294 295 295
317 315 317 318 317 317 315 314 313 314 313 313 313 307 308 307 305 303 302 301 301 301 301 301 301 300 300 298 296 295 296 296 297 297 297 297 296 297 296 295 294 294 294 294 294 294 294 294 294
316 316 317 317 317 314 316 315 313 313 313 310 311 308 305 304 303 302 302 301 301 301 300 300 300 300 300 299 296 297 297 297 297 296 296 297 296 296 296 295 295 294 294 295 294 294 294 294 294
318 316 316 317 316 316 315 313 315 311 313 313 309 309 305 303 303 302 302 302 302 301 300 300 300 300 299 298 297 298 298 297 296 295 296 296 296 295 295 294 294 294 294 294 294 294 293 293 292
317 316 316 315 314 314 314 313 312 311 310 309 310 307 305 304 304 304 304 303 302 302 301 300 300 299 299 297 297 298 298 298 297 295 295 296 295 295 294 294 294 294 293 293 293 293 292 292 292
316 316 314 314 314 313 314 312 313 311 310 310 309 308 305 305 304 303 303 303 303 303 302 301 300 299 299 298 297 298 298 297 296 295 294 294 295 295 294 294 294 293 293 292 292 292 291 290 290
315 315 312 313 313 313 312 313 313 313 312 311 309 308 306 306 305 304 304 304 305 304 303 302 300 299 299 298 298 298 298 297 296 295 294 294 294 295 295 294 294 293 292 292 291 291 290 290 290
314 313 314 314 312 313 313 314 312 311 309 310 309 307 306 307 306 307 306 306 305 305 303 302 300 299 298 298 298 297 297 296 295 295 294 293 294 294 293 293 293 292 291 290 290 290 289 289 289
311 311 313 314 313 312 312 313 312 311 308 310 307 307 307 306 306 308 308 308 306 306 305 302 300 299 298 298 297 297 296 296 295 294 294 293 293 293 292 292 292 291 290 290 290 289 289 288 288
312 313 313 314 314 312 312 312 313 310 311 309 307 307 307 308 309 309 309 308 307 306 306 303 299 299 298 297 297 296 296 295 294 294 293 293 293 292 292 292 291 291 290 289 289 288 288 288 287
311 312 312 312 313 313 313 313 313 312 308 310 311 310 308 308 310 310 309 308 307 305 303 301 298 298 298 297 296 296 295 294 293 293 293 292 292 292 291 290 290 289 288 288 288 288 288 288 287
312 313 314 313 313 312 312 313 311 312 312 309 311 311 311 311 307 306 307 306 305 304 302 299 299 299 298 297 296 294 294 294 293 293 292 292 291 291 290 290 289 289 288 288 288 287 287 287 287
314 313 313 312 312 310 310 311 311 311 312 311 311 311 311 311 308 305 302 304 303 301 300 299 298 299 297 296 295 294 294 293 293 292 291 291 291 290 290 289 289 288 288 288 287 287 286 286 286
315 311 312 313 313 314 310 314 310 311 311 311 311 311 310 310 305 304 303 303 302 301 300 299 298 298 297 296 295 294 293 292 292 291 291 291 290 290 289 289 288 288 288 287 287 286 286 286 285
313 311 311 312 312 313 313 313 313 310 310 310 310 310 311 308 304 303 303 304 302 301 300 299 298 297 296 296 295 294 292 292 292 292 291 291 290 289 289 288 288 287 287 286 286 285 285 285 285
310 312 311 310 309 313 312 314 313 309 312 310 310 309 309 306 305 303 304 304 301 300 299 297 296 296 295 295 294 294 292 292 292 291 291 290 290 289 288 288 287 287 286 286 285 285 284 284 284
311 312 313 314 312 315 310 312 313 310 309 309 310 310 309 305 304 302 300 299 299 298 297 297 296 295 295 295 294 293 293 292 292 292 290 289 289 288 288 288 287 286 285 285 284 284 284 283 283
310 313 315 314 313 312 308 311 312 311 311 308 307 308 305 305 303 302 301 300 299 298 297 297 296 295 295 295 294 293 293 292 292 292 291 290 289 289 289 288 287 286 285 284 284 283 283 282 281
310 312 311 315 306 310 313 310 309 309 308 307 307 305 305 304 302 302 300 299 298 298 297 297 296 295 295 294 294 293 292 292 291 291 291 290 290 290 288 287 286 285 284 283 283 282 282 281 281
309 307 313 313 316 313 312 309 312 311 310 309 306 304 304 303 303 302 300 299 299 299 298 298 296 295 295 294 294 293 292 292 291 291 290 290 290 289 287 286 285 284 283 282 282 281 281 280 280
306 308 308 309 313 315 314 313 307 308 309 310 307 304 303 303 303 302 301 300 300 300 299 298 297 296 295 294 293 293 292 291 291 291 291 290 290 288 287 285 284 283 282 282 281 280 280 279 279
307 310 311 313 313 309 312 313 309 309 308 309 309 307 306 304 304 302 301 299 299 299 298 298 297 295 295 294 292 292 291 291 291 290 290 290 289 288 286 285 283 282 281 281 280 280 279 278 277

GFSSGP_925_thetae_036.txt.gz
Theta_e
320 323 323 324 321 318 321 323 316 318 318 316 316 317 317 318 320 319 321 324 323 324 325 330 333 334 334 334 333 334 334 334 334 333 333 333 332 332 332 330 332 332 333 333 332 330 329 329 329
322 322 323 317 321 320 320 318 317 316 316 313 315 315 317 319 314 314 319 323 323 321 323 325 327 330 331 331 331 332 332 332 332 331 330 330 330 328 326 325 324 325 325 325 324 324 325 325 324
320 321 320 320 318 320 319 316 315 316 314 315 315 314 314 317 312 314 317 321 322 321 320 322 325 328 330 330 329 329 329 331 330 328 326 324 323 321 319 317 316 316 318 317 317 317 313 309 310
320 316 310 317 321 318 317 315 314 314 315 315 314 315 313 313 313 315 316 319 321 320 318 320 323 325 325 325 325 325 325 326 324 322 320 319 317 315 312 308 309 310 313 313 313 312 310 308 305
317 312 318 318 315 313 313 314 311 314 314 314 313 315 313 311 313 314 317 318 319 319 317 318 323 323 322 322 321 321 320 321 319 317 314 313 313 312 312 312 311 312 312 313 312 311 310 309 309
314 311 317 318 316 316 314 313 312 314 313 313 314 312 313 309 313 313 316 316 317 317 315 316 320 320 320 318 313 312 310 313 313 310 310 310 309 307 309 308 309 310 309 309 308 308 308 307 308
316 316 317 315 317 317 315 310 313 313 312 313 312 313 310 306 312 313 315 315 315 315 314 315 317 317 316 314 311 309 306 306 304 306 303 300 298 297 300 302 304 306 305 304 304 300 299 298 298
313 313 317 316 317 318 316 313 314 313 313 311 310 312 313 306 311 313 313 313 313 313 312 312 313 313 311 311 309 304 301 301 302 299 298 297 297 296 296 297 302 303 301 302 299 296 296 295 296
312 311 314 315 318 317 314 315 314 312 314 313 311 311 309 309 309 310 310 310 311 311 310 308 308 308 307 306 305 302 299 298 298 298 297 297 297 296 297 298 296 296 296 296 297 294 294 294 295
314 311 312 313 316 316 315 313 314 314 312 312 312 307 307 307 306 304 304 305 308 309 308 307 305 305 304 303 302 300 298 297 297 297 297 297 297 297 298 297 296 294 294 293 293 293 293 294 294
315 315 315 316 316 314 314 313 311 312 312 310 311 308 303 303 302 302 302 303 305 307 307 306 304 302 300 299 299 298 296 296 297 297 298 297 297 297 297 296 295 294 294 294 294 294 294 294 294
317 314 314 315 316 315 314 313 313 309 313 311 308 307 303 302 302 302 301 301 302 303 305 304 303 302 301 300 297 296 296 297 297 297 297 297 297 297 296 296 295 294 294 294 295 295 294 294 294
316 316 315 314 314 312 313 312 312 310 308 308 309 305 304 304 303 303 303 302 301 301 302 302 302 301 300 300 298 296 297 297 297 297 296 297 296 296 296 296 295 295 294 294 294 295 295 294 294
314 314 314 313 313 312 314 312 312 313 310 308 308 306 304 305 304 303 303 303 302 302 302 302 301 301 300 300 299 297 298 298 297 296 296 296 296 296 295 295 294 293 293 293 294 294 294 293 293
314 314 312 314 312 312 311 313 311 313 311 309 308 306 305 305 305 304 305 304 304 304 303 302 301 300 300 300 299 298 298 298 297 296 295 295 295 295 295 295 294 294 294 294 294 294 293 292 292
313 312 313 311 311 312 312 314 312 310 309 310 307 306 305 305 305 306 306 305 304 304 303 303 302 300 300 300 299 297 298 298 297 296 295 294 294 294 294 294 294 293 293 292 293 292 292 291 291
309 308 309 311 311 312 311 313 312 310 307 308 307 306 306 307 303 306 307 307 306 306 304 303 302 301 300 299 299 298 298 298 297 296 295 294 293 293 293 293 293 292 292 292 292 291 290 290 290
309 310 310 311 312 311 311 311 312 311 309 307 306 305 305 306 308 309 307 308 307 306 305 304 302 301 300 299 299 298 298 297 297 296 295 294 293 293 293 293 292 292 292 292 291 290 289 289 289
309 309 310 310 310 312 311 312 313 312 309 308 310 310 307 306 309 309 309 309 307 305 303 302 301 300 299 298 298 297 297 297 296 295 295 294 292 292 292 292 291 291 291 291 290 289 289 288 288
310 311 311 311 310 310 311 312 312 311 312 312 310 310 310 310 310 308 306 307 305 305 305 302 300 299 299 298 297 296 295 296 296 295 294 293 292 292 291 291 291 291 290 290 289 288 288 287 287
310 311 311 311 310 308 309 312 310 308 310 311 311 310 311 311 310 310 302 304 304 303 302 301 300 300 298 298 297 296 295 295 294 294 293 293 292 292 291 291 290 290 290 289 288 288 287 287 286
312 310 312 312 311 312 310 313 311 309 309 309 310 310 309 310 310 310 302 301 302 304 302 300 299 298 298 297 296 295 295 294 294 293 293 292 292 291 291 290 290 289 289 288 287 287 287 287 286
313 310 309 310 309 310 310 311 312 309 309 310 311 310 309 309 309 307 302 304 304 303 301 299 298 297 297 297 296 295 294 294 294 293 292 292 292 291 291 290 289 288 288 287 287 287 287 287 286
309 311 310 307 307 312 312 311 313 309 310 310 310 310 310 309 310 302 302 303 302 302 300 298 297 296 297 297 296 296 294 294 293 293 292 292 291 291 290 289 289 288 287 287 286 286 286 286 285
310 310 312 311 311 314 308 310 312 310 309 308 310 310 309 309 308 303 301 299 298 299 298 297 296 295 296 296 295 295 295 294 293 293 292 291 290 290 290 289 288 287 287 286 286 285 285 285 285
308 311 313 311 313 313 307 311 312 309 309 310 307 309 308 306 304 303 301 299 298 298 297 296 295 295 295 295 295 295 295 294 293 293 292 292 291 290 290 289 288 287 286 286 285 285 284 284 283
309 311 310 311 300 307 310 309 311 308 307 306 306 306 305 302 302 302 301 299 298 297 296 297 295 295 295 295 294 294 294 293 293 292 292 292 291 291 291 290 288 287 286 285 285 284 284 283 282
308 308 312 311 313 312 311 310 312 311 309 308 308 304 305 302 302 301 300 299 298 297 297 297 297 296 295 295 294 294 294 294 293 292 292 291 291 291 291 290 288 287 285 285 284 283 282 282 282
306 308 308 309 314 316 317 315 313 312 307 306 306 305 303 301 302 301 301 300 299 299 298 297 297 296 295 295 295 294 294 293 292 292 292 291 291 290 290 289 288 286 285 284 283 282 282 281 281
306 308 310 313 314 311 314 314 312 311 307 305 305 304 305 303 302 302 301 300 298 298 298 297 297 296 297 296 294 294 293 293 291 291 291 291 291 290 290 289 288 286 285 283 282 281 281 281 280